When you browse on this site, cookies collect data to enhance your experience and personalize the content and advertising you see.
Visit our Privacy Policy to learn more. By continuing to use the site, you agree to this use of cookies and data.

Meteo pe oră la Krizhopol

Astăzi, 5 August, Miercuri

Timp Temperatura Precipitaţii Vânt Presiune Umiditate
00:00 +18°C° 0 mm 2 m/s 735 mmHg 56%
01:00 +18°C° 0 mm 2 m/s 735 mmHg 57%
02:00 +18°C° 0 mm 1 m/s 736 mmHg 58%
03:00 +18°C° 0 mm 1 m/s 736 mmHg 59%
04:00 +18°C° 0 mm 1 m/s 736 mmHg 60%
05:00 +18°C° 0 mm 1 m/s 736 mmHg 60%
06:00 +19°C° 0 mm 2 m/s 736 mmHg 57%
07:00 +21°C° 0 mm 2 m/s 737 mmHg 54%
08:00 +24°C° 0 mm 2 m/s 737 mmHg 51%
09:00 +26°C° 0 mm 2 m/s 737 mmHg 47%
10:00 +28°C° 0 mm 3 m/s 738 mmHg 43%
11:00 +29°C° 0 mm 4 m/s 738 mmHg 39%
12:00 +30°C° 0 mm 3 m/s 738 mmHg 37%
13:00 +30°C° 0 mm 3 m/s 738 mmHg 35%
14:00 +31°C° 0 mm 3 m/s 738 mmHg 33%
15:00 +31°C° 0 mm 3 m/s 738 mmHg 33%
16:00 +31°C° 0 mm 2 m/s 738 mmHg 34%
17:00 +31°C° 0 mm 2 m/s 738 mmHg 35%
18:00 +29°C° 0 mm 2 m/s 738 mmHg 40%
19:00 +26°C° 0 mm 2 m/s 737 mmHg 46%
20:00 +24°C° 0 mm 2 m/s 737 mmHg 51%
21:00 +23°C° 0 mm 2 m/s 738 mmHg 53%
22:00 +22°C° 0 mm 3 m/s 738 mmHg 54%
23:00 +21°C° 0 mm 3 m/s 738 mmHg 56%

Mâine, 6 August, Joi

Timp Temperatura Precipitaţii Vânt Presiune Umiditate
00:00 +20°C° 0 mm 3 m/s 738 mmHg 56%
01:00 +20°C° 0 mm 3 m/s 739 mmHg 56%
02:00 +19°C° 0 mm 3 m/s 739 mmHg 57%
03:00 +19°C° 0 mm 3 m/s 739 mmHg 59%
04:00 +18°C° 0 mm 3 m/s 739 mmHg 62%
05:00 +18°C° 0 mm 3 m/s 739 mmHg 64%
06:00 +20°C° 0 mm 3 m/s 739 mmHg 61%
07:00 +21°C° 0 mm 3 m/s 740 mmHg 58%
08:00 +24°C° 0 mm 3 m/s 740 mmHg 55%
09:00 +26°C° 0 mm 4 m/s 740 mmHg 50%
10:00 +28°C° 0 mm 4 m/s 741 mmHg 45%
11:00 +30°C° 0 mm 4 m/s 741 mmHg 40%
12:00 +30°C° 0 mm 4 m/s 741 mmHg 39%
13:00 +30°C° 0 mm 4 m/s 741 mmHg 38%
14:00 +32°C° 0 mm 5 m/s 741 mmHg 37%
15:00 +32°C° 0 mm 5 m/s 741 mmHg 38%
16:00 +30°C° 0 mm 5 m/s 740 mmHg 40%
17:00 +30°C° 0 mm 5 m/s 740 mmHg 42%
18:00 +28°C° 0 mm 4 m/s 740 mmHg 49%
19:00 +26°C° 0 mm 4 m/s 740 mmHg 55%
20:00 +24°C° 0 mm 3 m/s 740 mmHg 61%
21:00 +22°C° 0 mm 3 m/s 740 mmHg 63%
22:00 +21°C° 0 mm 3 m/s 741 mmHg 65%
23:00 +20°C° 0 mm 3 m/s 741 mmHg 67%

Poimâine, 7 August, Vineri

Timp Temperatura Precipitaţii Vânt Presiune Umiditate
00:00 +20°C° 0 mm 3 m/s 741 mmHg 68%
01:00 +20°C° 0 mm 3 m/s 741 mmHg 70%
02:00 +19°C° 0 mm 3 m/s 741 mmHg 71%
03:00 +19°C° 0 mm 3 m/s 741 mmHg 73%
04:00 +19°C° 0 mm 3 m/s 741 mmHg 74%
05:00 +18°C° 0 mm 3 m/s 741 mmHg 76%
06:00 +20°C° 0 mm 4 m/s 741 mmHg 71%
07:00 +22°C° 0 mm 4 m/s 742 mmHg 66%
08:00 +25°C° 0 mm 5 m/s 742 mmHg 61%
09:00 +26°C° 0 mm 5 m/s 742 mmHg 56%
10:00 +28°C° 0 mm 5 m/s 742 mmHg 50%
11:00 +30°C° 0 mm 5 m/s 742 mmHg 45%
12:00 +30°C° 0 mm 5 m/s 742 mmHg 45%
13:00 +32°C° 0 mm 5 m/s 742 mmHg 45%
14:00 +32°C° 0 mm 5 m/s 741 mmHg 46%
15:00 +32°C° 0.1 mm 5 m/s 741 mmHg 48%
16:00 +30°C° 0.1 mm 5 m/s 741 mmHg 50%
17:00 +30°C° 0.1 mm 5 m/s 740 mmHg 52%
18:00 +28°C° 0 mm 5 m/s 741 mmHg 54%
19:00 +26°C° 0 mm 5 m/s 741 mmHg 57%
20:00 +23°C° 0 mm 5 m/s 741 mmHg 59%
21:00 +22°C° 0 mm 5 m/s 741 mmHg 62%
22:00 +21°C° 0 mm 5 m/s 741 mmHg 66%
23:00 +20°C° 0 mm 5 m/s 741 mmHg 69%

8 August, Sâmbătă

Timp Temperatura Precipitaţii Vânt Presiune Umiditate
00:00 +20°C° 0 mm 5 m/s 741 mmHg 72%
01:00 +19°C° 0 mm 4 m/s 741 mmHg 76%
02:00 +18°C° 0 mm 4 m/s 741 mmHg 79%
03:00 +18°C° 0 mm 4 m/s 740 mmHg 82%
04:00 +17°C° 0 mm 4 m/s 740 mmHg 85%
05:00 +17°C° 0 mm 4 m/s 740 mmHg 88%
06:00 +17°C° 0 mm 5 m/s 740 mmHg 81%
07:00 +20°C° 0 mm 5 m/s 740 mmHg 74%
08:00 +21°C° 0 mm 5 m/s 741 mmHg 68%
09:00 +23°C° 0 mm 6 m/s 741 mmHg 61%
10:00 +24°C° 0 mm 6 m/s 741 mmHg 55%
11:00 +26°C° 0 mm 6 m/s 741 mmHg 48%
12:00 +27°C° 0 mm 6 m/s 740 mmHg 46%
13:00 +28°C° 0 mm 6 m/s 740 mmHg 44%
14:00 +28°C° 0 mm 6 m/s 740 mmHg 42%
15:00 +28°C° 0 mm 6 m/s 739 mmHg 43%
16:00 +27°C° 0 mm 6 m/s 739 mmHg 44%
17:00 +27°C° 0 mm 6 m/s 739 mmHg 45%
18:00 +25°C° 0 mm 5 m/s 739 mmHg 51%
19:00 +22°C° 0 mm 4 m/s 739 mmHg 57%
20:00 +21°C° 0 mm 4 m/s 739 mmHg 62%
21:00 +20°C° 0 mm 4 m/s 739 mmHg 65%
22:00 +19°C° 0 mm 4 m/s 739 mmHg 68%
23:00 +18°C° 0 mm 4 m/s 739 mmHg 70%

9 August, Duminică

Timp Temperatura Precipitaţii Vânt Presiune Umiditate
00:00 +18°C° 0 mm 3 m/s 738 mmHg 72%
01:00 +17°C° 0 mm 3 m/s 738 mmHg 74%
02:00 +17°C° 0 mm 3 m/s 738 mmHg 77%
03:00 +16°C° 0 mm 3 m/s 738 mmHg 79%
04:00 +16°C° 0 mm 3 m/s 738 mmHg 81%
05:00 +14°C° 0 mm 3 m/s 738 mmHg 83%
06:00 +17°C° 0 mm 3 m/s 738 mmHg 76%
07:00 +19°C° 0 mm 4 m/s 738 mmHg 70%
08:00 +21°C° 0 mm 4 m/s 738 mmHg 63%
09:00 +23°C° 0 mm 4 m/s 738 mmHg 57%
10:00 +25°C° 0 mm 4 m/s 738 mmHg 50%
11:00 +27°C° 0 mm 4 m/s 738 mmHg 44%
12:00 +28°C° 0 mm 4 m/s 738 mmHg 42%
13:00 +28°C° 0 mm 4 m/s 737 mmHg 41%
14:00 +29°C° 0 mm 4 m/s 737 mmHg 39%
15:00 +28°C° 0 mm 4 m/s 737 mmHg 41%
16:00 +28°C° 0 mm 4 m/s 737 mmHg 43%
17:00 +27°C° 0 mm 4 m/s 737 mmHg 44%
18:00 +26°C° 0 mm 4 m/s 737 mmHg 50%
19:00 +24°C° 0 mm 3 m/s 737 mmHg 55%
20:00 +21°C° 0 mm 3 m/s 737 mmHg 60%
21:00 +21°C° 0 mm 3 m/s 737 mmHg 63%
22:00 +20°C° 0 mm 3 m/s 737 mmHg 66%
23:00 +19°C° 0 mm 2 m/s 737 mmHg 69%

10 August, Luni

Timp Temperatura Precipitaţii Vânt Presiune Umiditate
00:00 +18°C° 0 mm 2 m/s 737 mmHg 70%
01:00 +18°C° 0 mm 2 m/s 737 mmHg 71%
02:00 +18°C° 0 mm 2 m/s 737 mmHg 72%
03:00 +17°C° 0 mm 2 m/s 737 mmHg 73%
04:00 +17°C° 0 mm 2 m/s 737 mmHg 73%
05:00 +16°C° 0 mm 2 m/s 736 mmHg 73%
06:00 +18°C° 0 mm 3 m/s 737 mmHg 68%
07:00 +20°C° 0 mm 3 m/s 737 mmHg 63%
08:00 +21°C° 0 mm 3 m/s 737 mmHg 58%
09:00 +24°C° 0 mm 3 m/s 737 mmHg 52%
10:00 +25°C° 0 mm 3 m/s 738 mmHg 46%
11:00 +27°C° 0 mm 3 m/s 738 mmHg 40%
12:00 +27°C° 0 mm 3 m/s 738 mmHg 40%
13:00 +27°C° 0 mm 3 m/s 737 mmHg 39%
14:00 +27°C° 0 mm 3 m/s 737 mmHg 38%
15:00 +27°C° 0 mm 3 m/s 737 mmHg 40%
16:00 +27°C° 0 mm 3 m/s 737 mmHg 41%
17:00 +26°C° 0 mm 2 m/s 737 mmHg 43%
18:00 +25°C° 0 mm 2 m/s 737 mmHg 47%
19:00 +23°C° 0 mm 2 m/s 737 mmHg 51%
20:00 +20°C° 0 mm 2 m/s 737 mmHg 55%
21:00 +20°C° 0 mm 2 m/s 737 mmHg 57%
22:00 +19°C° 0 mm 2 m/s 737 mmHg 58%
23:00 +19°C° 0 mm 3 m/s 738 mmHg 60%
Arată mai mult